Regional Weather Roundup
Issued by NWS

Home | Current Version | Previous Version | Text Only | Print | Product List | Glossary Off
Versions: 1 2 3 4 5 6 7 8 9 10 11 12 13 14 15 16 17 18 19 20 21 22 23 24 25 26 27 28 29 30 31 32 33 34 35 36 37 38 39 40 41 42 43 44 45 46 47 48 49 50

455
ASUS43 KLSX 230510
RWRMO

WEATHER SUMMARY FOR MISSOURI
NATIONAL WEATHER SERVICE SPRINGFIELD MO
1200 AM CDT WED MAY 23 2018

NOTE: "FAIR" INDICATES FEW OR NO CLOUDS BELOW 12,000 FEET WITH NO
       SIGNIFICANT WEATHER AND/OR OBSTRUCTIONS TO VISIBILITY.
       CURRENT SKY AND/OR WEATHER CONDITIONS ARE NOT AVAILABLE FOR
       CHILLICOTHE AND FARMINGTON.

MOZ001>031-035>038-043-044-053-054-230600-
...NORTHERN AND WESTERN MISSOURI...

CITY           SKY/WX    TMP DP  RH WIND       PRES   REMARKS
KANSAS CTY INT PTCLDY    70  63  78 SE7       30.04R
KANSAS C DTWN  CLOUDY    77  63  61 CALM      30.02R
LEE`S SUMMIT   CLOUDY    72  66  81 MISG      30.04S
ST JOSEPH      CLOUDY    71  65  81 S3        30.02S
CHILLICOTHE      N/A     68  61  78 CALM      30.05S
KIRKSVILLE     CLEAR     65  62  90 SE3       30.07S

$$
MOZ066>068-077>081-088>096-101>105-230600-
...SOUTHWEST MISSOURI...

CITY           SKY/WX    TMP DP  RH WIND       PRES   REMARKS
SPRINGFIELD    CLOUDY    72  65  78 SE3       30.05S
JOPLIN         CLOUDY    72  66  81 SE3       30.03S

$$
MOZ032>034-039>042-045>050-055>058-069>072-230600-
...CENTRAL MISSOURI...

CITY           SKY/WX    TMP DP  RH WIND       PRES   REMARKS
COLUMBIA       CLOUDY    70  63  78 E5        30.06S
JEFFERSON CITY PTCLDY    68  64  87 CALM      30.05R
ROLLA          CLOUDY    69  62  78 E6        30.07F
SEDALIA        CLOUDY    71  66  84 SE3       30.06S
WHITEMAN AFB   PTCLDY    69  63  79 SE5       30.00F
WARRENSBURG    CLOUDY    68  63  83 CALM      30.04S
OSAGE BEACH    CLOUDY    68  64  87 E3        30.06S

$$
MOZ051-052-059>065-230600-
...EAST CENTRAL MISSOURI...

CITY           SKY/WX    TMP DP  RH WIND       PRES   REMARKS
ST LOUIS INTL  MOCLDY    74  63  68 NE5       30.06S
SPIRIT OF STL  PTCLDY    68  66  93 CALM      30.05S
ST CHARLES     PTCLDY    71  65  81 NE5       30.05S

$$
MOZ072>076-082>087-097>100-106>115-230600-
...SOUTH CENTRAL AND SOUTHEAST MISSOURI...

CITY           SKY/WX    TMP DP  RH WIND       PRES   REMARKS
CAPE GIRARDEAU FAIR      70  67  90 CALM      30.03S
FARMINGTON     CLEAR     65  64  97 CALM      30.07S
POPLAR BLUFF   FAIR      72  71  97 CALM      30.03S
WEST PLAINS    PTCLDY    70  67  90 CALM      30.07S

$$




USA.gov is the U.S. government's official web portal to all federal, state and local government web resources and services.